Location: Tuebingen alte Sternwarte
(48.5376°N, 9.0555°E)
Time: 01:48:40
(UTC+02:00)

ISS - Visible Passes

Search period start: 24 September 2017 00:00
Search period end: 04 October 2017 00:00
Orbit: 401 x 407 km, 51.6° (Epoch: 24 September)

Date Brightness Start Highest point End Pass type
(mag) Time Alt. Az. Time Alt. Az. Time Alt. Az.
25 Sep -1.4 21:18:48 10° SW 21:19:31 15° SSW 21:19:31 15° SSW visible
26 Sep -2.5 20:27:02 10° SSW 20:29:39 22° SE 20:29:53 22° SE visible
26 Sep -0.6 22:02:34 10° WSW 22:02:34 10° WSW 22:02:34 10° WSW visible
27 Sep -3.1 21:10:15 10° WSW 21:12:44 46° SW 21:12:44 46° SW visible
28 Sep -3.4 20:18:06 10° SW 20:21:13 42° SSE 20:22:45 24° E visible
28 Sep -1.1 21:54:25 10° W 21:55:24 18° W 21:55:24 18° W visible
29 Sep -3.8 21:01:58 10° WSW 21:05:14 75° NNW 21:05:17 75° N visible
30 Sep -3.9 20:09:35 10° WSW 20:12:51 78° SSE 20:15:03 19° ENE visible
30 Sep -1.3 21:46:18 10° W 21:47:42 22° WNW 21:47:42 22° WNW visible
01 Oct -3.4 20:53:46 10° W 20:57:00 54° N 20:57:23 50° NNE visible
02 Oct -3.6 20:01:16 10° W 20:04:31 68° NNW 20:07:01 16° ENE visible
02 Oct -1.5 21:38:04 10° WNW 21:39:39 24° WNW 21:39:39 24° WNW visible
03 Oct -3.2 20:45:34 10° WNW 20:48:44 46° N 20:49:14 42° NNE visible
